Warning: Javascript must be enabled to use all the features on this page!


Page Loading - Please Wait...

Click to hideNews Bulletins

Peak Streamflow for the Nation

USGS 02313700 WACCASASSA RIVER NR GULF HAMMOCK, FLA.

Levy County, Florida
Hydrologic Unit Code 03110101
Latitude  29°12'14", Longitude  82°46'09" NAD27
Drainage area 480.00  square miles
Contributing drainage area 480  square miles
Output formats
Table
Graph
Tab-separated file
peakfq (watstore) format
Reselect output format
Water
Year
Date Gage
Height
(feet)
Stream-
flow
(cfs)
1964 1964-09-12 16.96 12,200
1965 1965-08-03   4,2901
1966 1966-08-11   3,4501
1967 1966-10-01   2,3001
1968 1968-09-02   1,3701
1969 1969-08-06   1,2701
1970 1970-08-17   2,3101
1971 1971-08-18   3,3501
1972 1972-06-21   1,8901
1973 1973-04-05   1,7001
1974 1974-08-09   9411
1975 1975-09-24   1,4201
1976 1975-10-18   1,1601
1977 1977-09-28   6281
1978 1978-03-04 2.122 2,0801
1985 1985-09-03 13.432,6 3,3501
1986 1986-08-22 12.532 1,6901
1987 1987-04-03 13.152 5,080
1988 1988-09-11 14.192 5,870
1989 1989-07-20 13.022 2,370
1990 1990-01-08 11.422 3,040
1991 1991-04-23 13.252 5,080
1992 1992-03-10 13.582 1,710
1999 1999-02-18 13.112 2,340
2000 2000-09-18 13.302 3,160
2001 2001-07-24 14.152 3,590
2002 2002-05-29 12.582 2,730
2003 2003-08-10 13.922 3,700
2004 2004-09-08 15.272 8,330
2005 2005-07-10 14.712 4,360
2006 2006-09-06 13.352 2,600
2008 2008-08-22 14.66 3,370
2009 2009-04-14 13.692 2,870
2012 2012-08-23   2,2701
2013 2013-08-23   2,3101
2014 2014-03-20   2,0701
2015 2015-08-04   3,3401
2016 2016-08-10   3,8901,2
2017 2017-05-24    
2018 2018-07-24   3,7301
2019 2019-08-18   7,8701
2020 2020-09-03   9501,2
?
  Peak Gage-Height Qualification Codes.
?
  Peak Streamflow Qualification Codes.